Time,TemperatureF,DewpointF,PressureIn,WindDirection,WindDirectionDegrees,WindSpeedMPH,WindSpeedGustMPH,Humidity,HourlyPrecipIn,Conditions,Clouds,dailyrainin,SoftwareType,DateUTC
2013-07-31 09:00:00,77.0,67.0,30.08,NE,43,0.0,0.0,72,0.00,,,-99.99,,2013-07-31 13:00:00,
2013-07-31 09:33:00,77.0,67.0,30.08,NE,43,0.0,0.0,72,0.00,,,-99.99,,2013-07-31 13:33:00,
2013-07-31 09:43:00,77.0,67.0,30.08,NE,43,0.0,0.0,72,0.00,,,-99.99,,2013-07-31 13:43:00,
2013-07-31 09:53:00,77.0,67.0,30.08,NE,43,0.0,0.0,72,0.00,,,-99.99,,2013-07-31 13:53:00,
2013-07-31 10:00:00,77.0,63.0,30.08,WNW,282,0.0,5.0,62,0.00,,,-99.99,,2013-07-31 14:00:00,
2013-07-31 10:34:00,77.0,63.0,30.08,WNW,282,0.0,5.0,62,0.00,,,-99.99,,2013-07-31 14:34:00,
2013-07-31 10:43:00,77.0,63.0,30.08,WNW,282,0.0,5.0,62,0.00,,,-99.99,,2013-07-31 14:43:00,
2013-07-31 10:53:00,77.0,63.0,30.08,WNW,282,0.0,5.0,62,0.00,,,-99.99,,2013-07-31 14:53:00,
2013-07-31 11:00:00,79.0,63.0,30.08,North,1,2.0,6.0,58,0.00,,,-99.99,,2013-07-31 15:00:00,
2013-07-31 11:33:00,79.0,63.0,30.08,North,1,2.0,6.0,58,0.00,,,-99.99,,2013-07-31 15:33:00,
2013-07-31 11:44:00,79.0,63.0,30.08,North,1,2.0,6.0,58,0.00,,,-99.99,,2013-07-31 15:44:00,
2013-07-31 11:53:00,79.0,63.0,30.08,North,1,2.0,6.0,58,0.00,,,-99.99,,2013-07-31 15:53:00,
2013-07-31 12:00:00,79.0,64.0,30.07,ESE,107,0.0,6.0,60,0.00,,,-99.99,,2013-07-31 16:00:00,
2013-07-31 12:33:00,79.0,64.0,30.07,ESE,107,0.0,6.0,60,0.00,,,-99.99,,2013-07-31 16:33:00,
2013-07-31 12:44:00,79.0,64.0,30.07,ESE,107,0.0,6.0,60,0.00,,,-99.99,,2013-07-31 16:44:00,
2013-07-31 12:53:00,79.0,64.0,30.07,ESE,107,0.0,6.0,60,0.00,,,-99.99,,2013-07-31 16:53:00,
2013-07-31 13:00:00,79.0,63.0,30.06,WSW,248,4.0,8.0,57,0.00,,,-99.99,,2013-07-31 17:00:00,
2013-07-31 13:33:00,79.0,63.0,30.06,WSW,248,4.0,8.0,57,0.00,,,-99.99,,2013-07-31 17:33:00,
2013-07-31 13:43:00,79.0,63.0,30.06,WSW,248,4.0,8.0,57,0.00,,,-99.99,,2013-07-31 17:43:00,
2013-07-31 13:53:00,79.0,63.0,30.06,WSW,248,4.0,8.0,57,0.00,,,-99.99,,2013-07-31 17:53:00,
2013-07-31 14:00:00,78.0,64.0,30.05,SSE,166,6.0,10.0,62,0.00,,,-99.99,,2013-07-31 18:00:00,
2013-07-31 14:33:00,78.0,64.0,30.05,SSE,166,6.0,10.0,62,0.00,,,-99.99,,2013-07-31 18:33:00,
2013-07-31 14:43:00,78.0,64.0,30.05,SSE,166,6.0,10.0,62,0.00,,,-99.99,,2013-07-31 18:43:00,
2013-07-31 14:52:00,78.0,64.0,30.05,SSE,166,6.0,10.0,62,0.00,,,-99.99,,2013-07-31 18:52:00,
2013-07-31 15:00:00,78.0,67.0,30.03,SE,136,0.0,10.0,68,0.00,,,-99.99,,2013-07-31 19:00:00,
2013-07-31 15:43:00,78.0,67.0,30.03,SE,136,0.0,10.0,68,0.00,,,-99.99,,2013-07-31 19:43:00,
2013-07-31 15:53:00,78.0,67.0,30.03,SE,136,0.0,10.0,68,0.00,,,-99.99,,2013-07-31 19:53:00,
2013-07-31 16:00:00,80.0,65.0,30.02,South,183,4.0,7.0,62,0.00,,,-99.99,,2013-07-31 20:00:00,
2013-07-31 16:32:00,80.0,65.0,30.02,South,183,4.0,7.0,62,0.00,,,-99.99,,2013-07-31 20:32:00,
2013-07-31 16:43:00,80.0,65.0,30.02,South,183,4.0,7.0,62,0.00,,,-99.99,,2013-07-31 20:43:00,
2013-07-31 16:53:00,80.0,65.0,30.02,South,183,4.0,7.0,62,0.00,,,-99.99,,2013-07-31 20:53:00,
2013-07-31 17:00:00,77.0,66.0,30.01,SSE,163,0.0,6.0,69,0.00,,,-99.99,,2013-07-31 21:00:00,
2013-07-31 17:32:00,77.0,66.0,30.01,SSE,163,0.0,6.0,69,0.00,,,-99.99,,2013-07-31 21:32:00,
2013-07-31 17:43:00,77.0,66.0,30.01,SSE,163,0.0,6.0,69,0.00,,,-99.99,,2013-07-31 21:43:00,
2013-07-31 17:53:00,77.0,66.0,30.01,SSE,163,0.0,6.0,69,0.00,,,-99.99,,2013-07-31 21:53:00,
2013-07-31 18:00:00,75.0,65.0,30.00,SSE,152,0.0,5.0,72,0.00,,,-99.99,,2013-07-31 22:00:00,
2013-07-31 18:33:00,75.0,65.0,30.00,SSE,152,0.0,5.0,72,0.00,,,-99.99,,2013-07-31 22:33:00,
2013-07-31 18:43:00,75.0,65.0,30.00,SSE,152,0.0,5.0,72,0.00,,,-99.99,,2013-07-31 22:43:00,
2013-07-31 18:53:00,75.0,65.0,30.00,SSE,152,0.0,5.0,72,0.00,,,-99.99,,2013-07-31 22:53:00,
2013-07-31 19:00:00,74.0,64.0,29.99,NE,42,0.0,5.0,72,0.00,,,-99.99,,2013-07-31 23:00:00,
2013-07-31 19:32:00,74.0,64.0,29.99,NE,42,0.0,5.0,72,0.00,,,-99.99,,2013-07-31 23:32:00,
2013-07-31 19:43:00,74.0,64.0,29.99,NE,42,0.0,5.0,72,0.00,,,-99.99,,2013-07-31 23:43:00,
2013-07-31 19:53:00,74.0,64.0,29.99,NE,42,0.0,5.0,72,0.00,,,-99.99,,2013-07-31 23:53:00,
2013-07-31 20:00:00,70.0,66.0,29.98,SW,221,0.0,5.0,86,0.00,,,-99.99,,2013-08-01 00:00:00,
2013-07-31 20:32:00,70.0,66.0,29.98,SW,221,0.0,5.0,86,0.00,,,-99.99,,2013-08-01 00:32:00,
2013-07-31 20:43:00,70.0,66.0,29.98,SW,221,0.0,5.0,86,0.00,,,-99.99,,2013-08-01 00:43:00,
2013-07-31 20:52:00,70.0,66.0,29.98,SW,221,0.0,5.0,86,0.00,,,-99.99,,2013-08-01 00:52:00,
2013-07-31 21:00:00,69.0,66.0,29.98,SSW,206,0.0,4.0,89,0.00,,,-99.99,,2013-08-01 01:00:00,
2013-07-31 21:33:00,69.0,66.0,29.98,SSW,206,0.0,4.0,89,0.00,,,-99.99,,2013-08-01 01:33:00,
2013-07-31 21:43:00,69.0,66.0,29.98,SSW,206,0.0,4.0,89,0.00,,,-99.99,,2013-08-01 01:43:00,
2013-07-31 21:53:00,69.0,66.0,29.98,SSW,206,0.0,4.0,89,0.00,,,-99.99,,2013-08-01 01:53:00,
2013-07-31 22:00:00,66.0,66.0,29.98,ESE,107,0.0,0.0,98,0.00,,,-99.99,,2013-08-01 02:00:00,
2013-07-31 22:43:00,66.0,66.0,29.98,ESE,107,0.0,0.0,98,0.00,,,-99.99,,2013-08-01 02:43:00,
2013-07-31 22:53:00,66.0,66.0,29.98,ESE,107,0.0,0.0,98,0.00,,,-99.99,,2013-08-01 02:53:00,
2013-07-31 23:00:00,70.0,67.0,29.98,SE,125,0.0,4.0,91,0.00,,,-99.99,,2013-08-01 03:00:00,
2013-07-31 23:32:00,70.0,67.0,29.98,SE,125,0.0,4.0,91,0.00,,,-99.99,,2013-08-01 03:32:00,
2013-07-31 23:43:00,70.0,67.0,29.98,SE,125,0.0,4.0,91,0.00,,,-99.99,,2013-08-01 03:43:00,
2013-07-31 23:53:00,70.0,67.0,29.98,SE,125,0.0,4.0,91,0.00,,,-99.99,,2013-08-01 03:53:00,